Location: Kailua
(21.4020°N, 157.7390°W)
Time: 14:16:05
(UTC-10:00)

Daily predictions for brighter satellites

Satellite Brightness Start Highest point End
(mag) Time Altitude Azimuth Time Altitude Azimuth Time Altitude Azimuth
Cosmos 1269 Rocket 4.0 18:03:54 10° N 18:09:12 72° ENE 18:14:28 10° SSE
SL-27 R/B 4.1 18:13:17 10° NE 18:15:30 15° ENE 18:17:43 10° ESE
NOSS 3-3 (A) 4.0 18:12:18 10° SSW 18:18:21 90° WNW 18:24:42 10° NNE
NOSS 3-3 (C) 4.0 18:12:25 10° SSW 18:18:27 89° SE 18:24:48 10° NNE
Cosmos 1844 Rocket 4.2 18:16:27 10° SW 18:21:32 36° WNW 18:26:39 10° N
GPS 2-04 Rocket1 4.1 18:17:53 10° WNW 18:21:37 38° SW 18:25:09 10° SE
Cosmos 921 Rocket 4.5 18:20:46 10° SE 18:23:32 17° E 18:26:00 11° ENE
MOS 1 4.5 18:18:56 10° S 18:24:36 79° WSW 18:30:16 10° NNW
NOSS 3-1 (A) 4.2 18:17:47 10° NNW 18:25:53 83° ENE 18:34:23 10° SSE
SKYMED 2 3.6 18:24:48 10° NNE 18:29:08 90° E 18:33:28 10° SSW
SL-8 Rocket 3.9 18:23:27 10° N 18:29:36 82° E 18:35:46 10° S
Cosmos 2297 4.2 18:24:40 10° S 18:29:52 39° ESE 18:35:03 10° NE
MONITOR-E 4.2 18:28:38 10° SSE 18:31:45 57° ENE 18:34:53 10° N
Cosmos 1455 Rocket 3.3 18:28:16 10° N 18:32:30 46° E 18:36:44 10° SSE
CZ-4 R/B 4.4 18:28:31 10° SSE 18:32:38 89° E 18:36:47 10° NNW
Cosmos 1484 Rocket 2.9 18:32:54 10° SSE 18:36:36 49° ENE 18:40:15 10° N
Delta 2 Rocket 4.0 18:33:37 10° W 18:37:21 46° NNW 18:40:41 15° NE
ATLAS 2AS CENTAUR R/B 3.7 18:31:15 10° N 18:37:47 28° NE 18:43:51 10° ESE
Fermi 4.3 18:34:51 10° WNW 18:38:48 45° N 18:41:25 19° ENE
Cosmos 2366 rocket 4.0 18:33:00 10° N 18:39:18 70° E 18:45:32 10° SSE
DMSP B5D1-3 4.5 18:34:19 10° NNE 18:39:27 83° ESE 18:44:34 10° S
Tiangong 1 2.2 18:36:50 10° WSW 18:39:38 34° NW 18:41:47 14° NNE
Cosmos 2218 Rocket 3.9 18:33:42 10° N 18:39:58 83° E 18:46:08 10° S
Cosmos 2278 Rocket 2.9 18:41:53 10° SSW 18:47:22 54° WNW 18:52:53 10° N
CZ-2C R/B 3.9 18:43:54 10° SSW 18:48:22 40° W 18:53:00 10° NNW
GPS 2-15 Rocket1 3.2 18:44:48 10° W 18:49:31 73° S 18:52:32 21° E
Meteor 1-13 Rocket 4.2 18:45:00 10° S 18:50:26 57° E 18:55:58 10° NNE
Cosmos 158 Rocket 4.3 18:46:19 10° NNW 18:51:36 70° WSW 18:56:43 10° S
COSMOS 2406 3.6 18:51:48 10° NNW 18:57:29 69° WSW 19:03:11 10° S
Cosmos 2056 Rocket 4.4 18:59:19 10° SSE 19:03:50 28° E 19:04:12 27° E
Helios 1B rocket 3.4 19:10:16 30° ESE 19:10:16 30° ESE 19:13:14 10° SSE
Cosmos 1809 Rocket 4.3 19:04:17 10° N 19:10:23 66° E 19:16:25 10° SSE
Hubble Space Telescope 0.6 19:08:10 10° WNW 19:12:19 77° NNE 19:13:15 52° E
Cosmos 1821 Rocket 4.4 19:14:32 34° ENE 19:15:01 35° E 19:20:30 10° SSE
Cosmos 1500 3.0 19:13:38 10° N 19:17:28 88° E 19:21:19 10° S
NOSS 2-1 (D) 3.5 19:14:04 10° SW 19:17:57 64° WNW 19:19:12 38° N
Cosmos 1624 Rocket 4.3 19:13:19 10° S 19:18:11 42° E 19:18:28 42° E
NOSS 2-1 (C) 3.5 19:14:45 10° SSW 19:18:40 66° WNW 19:19:51 41° N
Cosmos 1371 Rocket 4.0 19:16:24 10° S 19:21:38 63° ESE 19:23:12 43° NE
Nadezhda 3 Rocket 4.5 19:17:23 10° SSW 19:23:25 59° W 19:29:31 10° N
CZ-3B R/B 3.9 19:26:06 10° W 19:28:10 25° WNW 19:28:10 25° WNW
Meteor 2-8 Rocket 4.3 19:24:11 10° S 19:30:07 61° E 19:31:57 43° NE
SJ-6B 3.3 19:27:40 10° S 19:30:26 46° S 19:30:26 46° S
Delta 128 4.1 19:25:42 10° WSW 19:32:02 73° NNW 19:33:06 57° NE
Meteor 2-4 Rocket 3.5 19:26:37 10° S 19:32:07 82° E 19:34:13 39° NNE
METEOR-M 4.0 19:31:00 10° SSE 19:36:20 87° ENE 19:41:40 10° NNW
Aurora 2 Rocket 4.2 19:26:32 10° W 19:37:07 82° NNW 19:40:04 47° ENE
NOSS 2-1 (E) 4.3 19:33:31 10° SW 19:37:12 40° WNW 19:37:43 38° NW
GPS 2-14 Rocket1 3.1 19:34:17 10° W 19:37:49 63° WSW 19:37:49 63° WSW
NOAA 12 4.2 19:33:09 10° S 19:38:26 73° WSW 19:43:42 10° NNW
Mugunghwa Rocket 4.4 19:31:01 10° W 19:38:50 64° N 19:40:38 49° NE
GPS 2-18 Rocket1 3.9 19:36:48 10° W 19:40:07 53° WSW 19:40:07 53° WSW
Palapa 6 Rocket 3.2 19:35:23 10° W 19:40:55 75° NNW 19:40:55 75° NNW
GPS 2-17 Rocket1 3.9 19:46:50 10° WSW 19:50:21 44° SW 19:50:21 44° SW
Cosmos 1025 Rocket 3.9 19:47:20 10° SSW 19:51:29 47° W 19:51:44 46° WNW
Centaur AC-72 3.6 19:46:55 10° SW 19:53:10 36° SSE 19:53:54 34° SSE
GEOS 3 Rocket 4.5 20:04:09 20° S 20:07:26 46° WSW 20:12:20 10° NW
ATLAS 2AS CENTAUR R/B 3.8 20:21:36 10° NW 20:28:50 44° WSW 20:35:28 10° S
ATLAS 3B CENTAUR R/B 3.8 20:28:45 10° WNW 20:37:13 38° NW 20:37:13 38° NW
